Tracking 25734 objects as of 27-May-2022
HD Live streaming from Space Station
objects crossing your sky now

COSMOS 1818 COOLANT

Track COSMOS 1818 COOLANT now!
10-day predictions


NORAD ID: 34175
Int'l Code: 1987-011F
Perigee: 769.0 km
Apogee: 794.1 km
Inclination: 65.0 °
Period: 100.3 minutes
Semi major axis: 7152 km
RCS: 0.0033 m2 (small)
Launch date: February 1, 1987
Source: Commonwealth of Independent States (former USSR) (CIS)
Launch site: TYURATAM MISSILE AND SPACE COMPLEX (TTMTR)

Note: This is SATELLITE DEBRIS
aabbcc
Your satellite tracking list
Your tracking list is empty




NASA's NSSDC Master Catalog

Two Line Element Set (TLE):
1 34175U 87011F   22144.44524704  .00001279  00000-0  48084-3 0  9996
2 34175  65.0079  46.4052 0017521 250.2776 109.6420 14.35202078130610
Source of the keplerian elements: AFSPC